ICOR SV

导读 | 豆包AI

ICOR SV(NORAD编号68127)是一颗被北美防空司令部收录的人造卫星,目前公开可查信息较为有限。根据卫星轨道编号规则,NORAD 68127是该卫星在官方空间目标目录中的唯一识别码,用于跟踪其在轨运行状态。作为近年新增的空间目标,它大概率属于商业航天发射任务,可能承担通信技术试验、遥感观测或空间技术演示验证等功能。卫星运行在近地轨道范畴,遵循国际太空交通管理规则接受监测,后续随着任务公开,其具体用途和参数会逐步披露。

基本信息
目录编号:
68127
目录名称:
ICOR SV
国际标识:
2026-046A
轨道中心:
EARTH
卫星名称:
ICOR SV
卫星全名:
ICOR SV
卫星状态:
在轨 (已飞行33 天)
发射日期:
2026-03-12 UTC
国别 :
美国 (US)
星等 :
--
轨道信息
数据来源 国际轨道数据
星历时间: 2026-04-14T17:51:56+0800
10小时前
查看轨道信息
半长轴: 6612.271km
偏心率: 0.0059742
轨道倾角: 123.068°
近地点辐角 259.801°
升交点赤经 11.137°
平近点角 99.634°
近地点: 194.63km
远地点: 273.638km
周期: 89.184分钟
每日圈数: 16.146441
详细信息
使用方式:
暂无
2D轨道图
3D轨道图
轨道高度分析图
轨道倾角分析图
轨道综合分析图
查看轨道综合分析图